QPF
0.00 0.00 0.01 0.01 0.01 0.01 0.02 0.01 0.02 0.02 0.02 0.02 0.02 0.01 0.02 0.02 0.02 0.01 0.02 0.05 0.05 0.04 0.06 0.05 0.02 0.02 0.01 0.02 0.02 0.02 0.02 0.02 0.01 0.01 0.01 0.01 0.01 0.01 0.01 0.01 0.01 0.01 0.01
0.00 0.01 0.01 0.01 0.02 0.02 0.02 0.01 0.03 0.03 0.02 0.02 0.03 0.03 0.03 0.03 0.02 0.01 0.01 0.03 0.05 0.04 0.04 0.06 0.05 0.03 0.02 0.02 0.02 0.02 0.02 0.02 0.02 0.02 0.01 0.01 0.01 0.01 0.01 0.01 0.01 0.01 0.01
0.01 0.01 0.01 0.02 0.02 0.03 0.03 0.02 0.03 0.02 0.03 0.03 0.03 0.04 0.04 0.03 0.02 0.01 0.01 0.02 0.03 0.04 0.04 0.06 0.08 0.07 0.05 0.03 0.02 0.02 0.02 0.02 0.02 0.02 0.02 0.01 0.01 0.01 0.01 0.01 0.01 0.01 0.01
0.02 0.02 0.03 0.03 0.03 0.03 0.03 0.03 0.03 0.03 0.05 0.03 0.04 0.04 0.04 0.03 0.02 0.01 0.01 0.01 0.02 0.02 0.03 0.05 0.06 0.07 0.07 0.05 0.03 0.03 0.03 0.02 0.02 0.01 0.02 0.01 0.01 0.01 0.01 0.02 0.01 0.01 0.01
0.03 0.04 0.04 0.04 0.04 0.04 0.04 0.03 0.03 0.04 0.04 0.04 0.04 0.05 0.04 0.04 0.03 0.02 0.02 0.01 0.01 0.01 0.01 0.03 0.06 0.06 0.07 0.07 0.07 0.06 0.05 0.04 0.03 0.02 0.03 0.03 0.02 0.02 0.02 0.02 0.02 0.01 0.01
0.04 0.03 0.03 0.03 0.03 0.03 0.03 0.03 0.02 0.03 0.04 0.05 0.04 0.04 0.03 0.04 0.03 0.02 0.02 0.02 0.01 0.01 0.01 0.01 0.01 0.02 0.05 0.06 0.07 0.06 0.06 0.06 0.05 0.04 0.03 0.03 0.02 0.03 0.03 0.03 0.02 0.02 0.02
0.05 0.04 0.03 0.01 0.01 0.01 0.03 0.03 0.02 0.02 0.03 0.02 0.02 0.02 0.02 0.02 0.02 0.02 0.01 0.01 0.01 0.01 0.01 0.01 0.01 0.00 0.01 0.03 0.04 0.06 0.06 0.07 0.09 0.07 0.05 0.03 0.04 0.04 0.03 0.03 0.03 0.03 0.02
0.08 0.05 0.03 0.03 0.03 0.02 0.02 0.03 0.03 0.02 0.02 0.01 0.01 0.01 0.01 0.02 0.02 0.01 0.01 0.01 0.00 0.00 0.00 0.01 0.01 0.00 0.00 0.01 0.01 0.04 0.05 0.07 0.08 0.07 0.06 0.05 0.05 0.04 0.03 0.03 0.03 0.02 0.02
0.12 0.11 0.07 0.06 0.05 0.04 0.02 0.02 0.02 0.01 0.01 0.01 0.01 0.01 0.01 0.01 0.01 0.01 0.00 0.00 0.00 0.01 0.01 0.00 0.00 0.00 0.00 0.00 0.01 0.02 0.03 0.04 0.05 0.06 0.06 0.04 0.03 0.03 0.03 0.03 0.03 0.03 0.03
0.11 0.08 0.08 0.06 0.05 0.04 0.03 0.02 0.03 0.02 0.02 0.01 0.01 0.00 0.00 0.01 0.01 0.00 0.00 0.00 0.00 0.00 0.00 0.00 0.00 0.00 0.00 0.00 0.01 0.01 0.01 0.02 0.03 0.04 0.04 0.03 0.03 0.02 0.02 0.02 0.03 0.03 0.03
0.09 0.06 0.05 0.04 0.04 0.03 0.02 0.02 0.03 0.02 0.02 0.02 0.01 0.01 0.00 0.00 0.00 0.00 0.00 0.00 0.00 0.00 0.00 0.01 0.01 0.00 0.01 0.01 0.01 0.01 0.01 0.01 0.01 0.02 0.02 0.02 0.02 0.02 0.01 0.01 0.02 0.03 0.03
0.09 0.06 0.06 0.04 0.03 0.03 0.02 0.02 0.03 0.02 0.02 0.02 0.02 0.01 0.00 0.00 0.00 0.00 0.00 0.00 0.00 0.00 0.01 0.01 0.01 0.01 0.01 0.01 0.01 0.00 0.01 0.01 0.00 0.01 0.01 0.01 0.01 0.02 0.02 0.01 0.01 0.02 0.02
0.06 0.05 0.05 0.05 0.03 0.02 0.02 0.03 0.03 0.02 0.02 0.02 0.02 0.01 0.01 0.01 0.01 0.01 0.01 0.00 0.00 0.00 0.01 0.00 0.01 0.00 0.01 0.01 0.01 0.01 0.00 0.01 0.01 0.01 0.01 0.01 0.00 0.01 0.01 0.01 0.01 0.01 0.01
0.05 0.07 0.07 0.06 0.05 0.04 0.03 0.03 0.03 0.02 0.03 0.03 0.02 0.02 0.02 0.02 0.02 0.02 0.01 0.01 0.01 0.00 0.01 0.01 0.01 0.01 0.01 0.01 0.01 0.01 0.00 0.00 0.00 0.01 0.00 0.00 0.00 0.01 0.01 0.01 0.01 0.01 0.01
0.08 0.09 0.08 0.08 0.08 0.07 0.06 0.05 0.04 0.03 0.03 0.03 0.02 0.02 0.02 0.03 0.03 0.03 0.02 0.02 0.02 0.01 0.00 0.00 0.01 0.01 0.01 0.01 0.00 0.00 0.00 0.00 0.00 0.00 0.00 0.00 0.00 0.01 0.01 0.01 0.01 0.01 0.00
0.09 0.10 0.10 0.09 0.08 0.09 0.09 0.07 0.05 0.04 0.04 0.05 0.05 0.03 0.03 0.03 0.04 0.04 0.03 0.03 0.02 0.01 0.00 0.00 0.01 0.01 0.01 0.01 0.01 0.00 0.00 0.00 0.00 0.00 0.00 0.00 0.00 0.01 0.01 0.01 0.01 0.00 0.00
0.09 0.10 0.11 0.10 0.09 0.09 0.08 0.07 0.06 0.07 0.08 0.06 0.05 0.03 0.03 0.03 0.03 0.03 0.03 0.02 0.01 0.01 0.01 0.01 0.01 0.01 0.01 0.01 0.00 0.00 0.00 0.00 0.00 0.00 0.00 0.00 0.00 0.01 0.01 0.01 0.01 0.01 0.00
0.12 0.11 0.10 0.10 0.09 0.09 0.09 0.08 0.09 0.10 0.09 0.06 0.05 0.05 0.05 0.04 0.03 0.03 0.02 0.02 0.01 0.01 0.01 0.01 0.01 0.01 0.01 0.01 0.01 0.00 0.00 0.00 0.00 0.00 0.00 0.00 0.00 0.00 0.01 0.01 0.01 0.00 0.00
0.13 0.12 0.09 0.08 0.08 0.08 0.09 0.11 0.11 0.09 0.07 0.07 0.06 0.05 0.05 0.05 0.05 0.04 0.03 0.03 0.02 0.02 0.02 0.02 0.01 0.01 0.01 0.00 0.01 0.01 0.01 0.01 0.01 0.00 0.00 0.00 0.01 0.01 0.01 0.00 0.00 0.00 0.00
0.15 0.15 0.12 0.10 0.10 0.10 0.11 0.14 0.14 0.10 0.08 0.08 0.06 0.04 0.03 0.04 0.04 0.05 0.06 0.06 0.05 0.04 0.03 0.03 0.02 0.02 0.01 0.01 0.01 0.00 0.00 0.00 0.01 0.01 0.00 0.00 0.00 0.00 0.00 0.01 0.01 0.01 0.01
0.17 0.22 0.20 0.16 0.14 0.14 0.14 0.13 0.13 0.12 0.09 0.08 0.07 0.06 0.06 0.07 0.07 0.08 0.07 0.07 0.06 0.06 0.05 0.04 0.03 0.02 0.02 0.01 0.01 0.01 0.01 0.01 0.01 0.01 0.01 0.00 0.00 0.01 0.01 0.01 0.01 0.01 0.01
0.11 0.14 0.16 0.13 0.12 0.13 0.17 0.17 0.16 0.14 0.11 0.10 0.09 0.08 0.07 0.07 0.06 0.06 0.05 0.04 0.04 0.03 0.03 0.02 0.02 0.02 0.01 0.01 0.01 0.01 0.01 0.01 0.01 0.01 0.01 0.01 0.01 0.01 0.01 0.01 0.01 0.01 0.01
0.09 0.09 0.11 0.14 0.15 0.17 0.19 0.19 0.19 0.16 0.14 0.13 0.11 0.10 0.08 0.07 0.07 0.06 0.05 0.04 0.04 0.05 0.05 0.04 0.03 0.03 0.03 0.02 0.02 0.02 0.02 0.02 0.03 0.02 0.02 0.02 0.02 0.02 0.02 0.01 0.01 0.00 0.00
0.12 0.12 0.13 0.15 0.17 0.20 0.22 0.20 0.20 0.17 0.16 0.14 0.13 0.12 0.11 0.10 0.09 0.09 0.07 0.06 0.05 0.05 0.07 0.07 0.06 0.07 0.07 0.06 0.05 0.05 0.05 0.05 0.05 0.05 0.05 0.04 0.03 0.02 0.01 0.01 0.01 0.01 0.00
0.12 0.13 0.14 0.15 0.15 0.17 0.21 0.19 0.18 0.14 0.12 0.11 0.10 0.10 0.10 0.10 0.10 0.10 0.09 0.07 0.06 0.06 0.07 0.07 0.07 0.06 0.06 0.06 0.05 0.05 0.05 0.04 0.04 0.04 0.04 0.04 0.02 0.01 0.01 0.00 0.00 0.00 0.01
0.13 0.13 0.14 0.14 0.13 0.12 0.13 0.13 0.13 0.12 0.10 0.08 0.07 0.06 0.06 0.06 0.07 0.08 0.07 0.06 0.06 0.06 0.06 0.04 0.03 0.03 0.03 0.04 0.05 0.03 0.03 0.03 0.02 0.02 0.02 0.01 0.01 0.01 0.01 0.01 0.00 0.00 0.01
MSLP
1017.38 1017.56 1017.65 1017.69 1017.72 1017.78 1017.89 1018.06 1018.29 1018.56 1018.83 1019.08 1019.31 1019.49 1019.66 1019.80 1019.95 1020.11 1020.29 1020.48 1020.68 1020.88 1021.07 1021.24 1021.40 1021.55 1021.68 1021.79 1021.89 1021.98 1022.06 1022.13 1022.20 1022.28 1022.38 1022.51 1022.66 1022.83 1023.00 1023.15 1023.27 1023.35 1023.38
1017.39 1017.59 1017.71 1017.78 1017.84 1017.93 1018.06 1018.25 1018.49 1018.77 1019.06 1019.34 1019.58 1019.78 1019.94 1020.07 1020.18 1020.29 1020.41 1020.55 1020.70 1020.88 1021.06 1021.24 1021.42 1021.59 1021.74 1021.86 1021.96 1022.03 1022.08 1022.13 1022.17 1022.24 1022.33 1022.47 1022.63 1022.82 1023.02 1023.19 1023.33 1023.41 1023.45
1017.27 1017.50 1017.67 1017.80 1017.92 1018.06 1018.23 1018.45 1018.72 1019.01 1019.31 1019.60 1019.85 1020.06 1020.21 1020.32 1020.39 1020.45 1020.51 1020.59 1020.68 1020.81 1020.97 1021.15 1021.34 1021.53 1021.70 1021.84 1021.95 1022.01 1022.05 1022.08 1022.10 1022.15 1022.24 1022.37 1022.53 1022.73 1022.93 1023.11 1023.26 1023.36 1023.41
1017.03 1017.30 1017.53 1017.75 1017.95 1018.16 1018.38 1018.64 1018.92 1019.23 1019.54 1019.82 1020.08 1020.28 1020.43 1020.52 1020.57 1020.58 1020.58 1020.59 1020.63 1020.70 1020.82 1020.98 1021.17 1021.37 1021.55 1021.72 1021.84 1021.92 1021.96 1021.97 1021.99 1022.02 1022.09 1022.20 1022.35 1022.53 1022.73 1022.91 1023.06 1023.17 1023.24
1016.69 1017.01 1017.32 1017.62 1017.91 1018.20 1018.49 1018.78 1019.09 1019.39 1019.70 1019.98 1020.24 1020.44 1020.59 1020.67 1020.70 1020.67 1020.63 1020.58 1020.55 1020.57 1020.64 1020.77 1020.94 1021.13 1021.33 1021.50 1021.64 1021.73 1021.78 1021.80 1021.81 1021.83 1021.88 1021.97 1022.09 1022.25 1022.43 1022.59 1022.74 1022.86 1022.94
1016.31 1016.67 1017.06 1017.44 1017.82 1018.18 1018.52 1018.85 1019.17 1019.48 1019.78 1020.06 1020.32 1020.53 1020.68 1020.77 1020.79 1020.75 1020.68 1020.58 1020.50 1020.46 1020.48 1020.55 1020.68 1020.86 1021.04 1021.22 1021.37 1021.48 1021.54 1021.57 1021.58 1021.60 1021.63 1021.70 1021.80 1021.92 1022.07 1022.21 1022.35 1022.46 1022.55
1015.93 1016.32 1016.76 1017.21 1017.66 1018.09 1018.48 1018.83 1019.16 1019.47 1019.77 1020.05 1020.32 1020.55 1020.72 1020.84 1020.87 1020.84 1020.75 1020.63 1020.50 1020.40 1020.35 1020.36 1020.44 1020.57 1020.72 1020.89 1021.04 1021.15 1021.23 1021.28 1021.31 1021.33 1021.36 1021.41 1021.49 1021.59 1021.70 1021.82 1021.94 1022.04 1022.13
1015.55 1015.97 1016.44 1016.95 1017.45 1017.92 1018.34 1018.72 1019.06 1019.37 1019.67 1019.97 1020.25 1020.51 1020.73 1020.88 1020.95 1020.93 1020.85 1020.71 1020.54 1020.39 1020.27 1020.21 1020.22 1020.28 1020.39 1020.53 1020.66 1020.78 1020.87 1020.94 1020.99 1021.04 1021.08 1021.14 1021.21 1021.29 1021.38 1021.48 1021.57 1021.65 1021.74
1015.18 1015.61 1016.11 1016.64 1017.17 1017.66 1018.11 1018.51 1018.86 1019.18 1019.50 1019.82 1020.13 1020.43 1020.69 1020.89 1021.01 1021.02 1020.95 1020.81 1020.62 1020.42 1020.23 1020.10 1020.03 1020.02 1020.06 1020.15 1020.25 1020.36 1020.47 1020.56 1020.65 1020.73 1020.81 1020.89 1020.97 1021.06 1021.14 1021.21 1021.29 1021.35 1021.42
1014.81 1015.24 1015.74 1016.28 1016.82 1017.33 1017.79 1018.20 1018.56 1018.91 1019.25 1019.60 1019.95 1020.30 1020.61 1020.86 1021.02 1021.08 1021.03 1020.89 1020.68 1020.45 1020.21 1020.00 1019.85 1019.76 1019.73 1019.76 1019.83 1019.92 1020.03 1020.15 1020.28 1020.41 1020.53 1020.66 1020.77 1020.88 1020.97 1021.04 1021.10 1021.15 1021.20
1014.39 1014.82 1015.32 1015.86 1016.40 1016.91 1017.37 1017.80 1018.18 1018.56 1018.93 1019.31 1019.71 1020.09 1020.45 1020.75 1020.96 1021.05 1021.03 1020.90 1020.69 1020.43 1020.16 1019.89 1019.67 1019.51 1019.42 1019.38 1019.40 1019.47 1019.58 1019.72 1019.88 1020.05 1020.24 1020.42 1020.58 1020.72 1020.83 1020.91 1020.97 1021.01 1021.04
1013.91 1014.34 1014.84 1015.37 1015.90 1016.41 1016.88 1017.32 1017.73 1018.13 1018.54 1018.96 1019.39 1019.81 1020.20 1020.53 1020.77 1020.90 1020.91 1020.80 1020.61 1020.34 1020.05 1019.75 1019.49 1019.27 1019.11 1019.01 1018.98 1019.02 1019.11 1019.25 1019.44 1019.66 1019.90 1020.13 1020.35 1020.53 1020.67 1020.77 1020.83 1020.87 1020.89
1013.36 1013.80 1014.29 1014.81 1015.34 1015.85 1016.33 1016.79 1017.22 1017.65 1018.09 1018.54 1018.99 1019.44 1019.85 1020.20 1020.46 1020.62 1020.65 1020.58 1020.41 1020.17 1019.88 1019.58 1019.29 1019.03 1018.82 1018.67 1018.59 1018.58 1018.64 1018.78 1018.97 1019.22 1019.49 1019.76 1020.02 1020.25 1020.43 1020.55 1020.62 1020.65 1020.66
1012.75 1013.21 1013.71 1014.23 1014.75 1015.27 1015.76 1016.23 1016.69 1017.15 1017.61 1018.08 1018.54 1018.99 1019.41 1019.76 1020.03 1020.21 1020.27 1020.23 1020.10 1019.90 1019.65 1019.36 1019.07 1018.80 1018.56 1018.37 1018.24 1018.18 1018.19 1018.29 1018.47 1018.71 1018.99 1019.29 1019.58 1019.83 1020.04 1020.18 1020.26 1020.29 1020.30
1012.12 1012.60 1013.12 1013.65 1014.18 1014.70 1015.21 1015.70 1016.18 1016.66 1017.13 1017.60 1018.07 1018.51 1018.91 1019.25 1019.52 1019.70 1019.79 1019.79 1019.71 1019.56 1019.36 1019.12 1018.86 1018.59 1018.34 1018.11 1017.93 1017.81 1017.77 1017.82 1017.95 1018.16 1018.42 1018.71 1019.00 1019.26 1019.48 1019.63 1019.72 1019.76 1019.76
1011.52 1012.03 1012.57 1013.11 1013.66 1014.20 1014.73 1015.24 1015.74 1016.22 1016.70 1017.16 1017.61 1018.02 1018.39 1018.72 1018.97 1019.16 1019.27 1019.30 1019.28 1019.19 1019.05 1018.87 1018.65 1018.40 1018.14 1017.89 1017.66 1017.49 1017.38 1017.36 1017.42 1017.57 1017.79 1018.04 1018.31 1018.55 1018.76 1018.91 1019.00 1019.05 1019.06
1011.00 1011.54 1012.10 1012.67 1013.24 1013.80 1014.34 1014.87 1015.38 1015.87 1016.34 1016.79 1017.20 1017.58 1017.92 1018.21 1018.44 1018.62 1018.74 1018.81 1018.83 1018.80 1018.72 1018.59 1018.42 1018.20 1017.95 1017.68 1017.42 1017.20 1017.02 1016.93 1016.92 1016.99 1017.13 1017.32 1017.54 1017.75 1017.93 1018.06 1018.15 1018.19 1018.20
1010.58 1011.14 1011.73 1012.32 1012.92 1013.50 1014.07 1014.61 1015.13 1015.61 1016.07 1016.49 1016.87 1017.21 1017.51 1017.76 1017.96 1018.12 1018.25 1018.33 1018.38 1018.40 1018.37 1018.29 1018.15 1017.97 1017.73 1017.46 1017.18 1016.92 1016.69 1016.53 1016.44 1016.43 1016.50 1016.61 1016.76 1016.91 1017.05 1017.15 1017.22 1017.25 1017.26
1010.26 1010.84 1011.45 1012.08 1012.70 1013.31 1013.89 1014.44 1014.96 1015.44 1015.87 1016.27 1016.62 1016.92 1017.17 1017.38 1017.55 1017.69 1017.80 1017.89 1017.95 1017.98 1017.98 1017.93 1017.83 1017.67 1017.46 1017.20 1016.92 1016.64 1016.38 1016.16 1016.01 1015.94 1015.92 1015.96 1016.03 1016.11 1016.19 1016.25 1016.29 1016.30 1016.31
1010.05 1010.64 1011.27 1011.92 1012.56 1013.18 1013.78 1014.33 1014.85 1015.31 1015.73 1016.10 1016.41 1016.68 1016.90 1017.07 1017.21 1017.31 1017.40 1017.47 1017.52 1017.56 1017.56 1017.53 1017.45 1017.31 1017.13 1016.89 1016.63 1016.35 1016.08 1015.84 1015.65 1015.52 1015.44 1015.40 1015.39 1015.40 1015.41 1015.42 1015.41 1015.40 1015.39
1009.94 1010.54 1011.17 1011.83 1012.48 1013.12 1013.71 1014.26 1014.76 1015.21 1015.61 1015.95 1016.24 1016.48 1016.67 1016.81 1016.92 1017.00 1017.05 1017.09 1017.12 1017.13 1017.12 1017.08 1017.01 1016.89 1016.73 1016.53 1016.30 1016.05 1015.80 1015.57 1015.37 1015.20 1015.06 1014.96 1014.88 1014.81 1014.75 1014.69 1014.63 1014.58 1014.54
1009.94 1010.52 1011.16 1011.81 1012.46 1013.09 1013.67 1014.21 1014.69 1015.12 1015.49 1015.81 1016.08 1016.30 1016.48 1016.60 1016.69 1016.74 1016.76 1016.76 1016.75 1016.72 1016.68 1016.63 1016.55 1016.45 1016.32 1016.16 1015.98 1015.77 1015.56 1015.36 1015.16 1014.97 1014.80 1014.65 1014.50 1014.36 1014.22 1014.09 1013.97 1013.87 1013.79
1010.05 1010.62 1011.24 1011.89 1012.52 1013.12 1013.68 1014.18 1014.63 1015.03 1015.38 1015.69 1015.95 1016.16 1016.33 1016.45 1016.52 1016.55 1016.54 1016.50 1016.45 1016.38 1016.30 1016.22 1016.14 1016.04 1015.94 1015.82 1015.69 1015.54 1015.38 1015.21 1015.03 1014.85 1014.65 1014.45 1014.25 1014.03 1013.82 1013.62 1013.43 1013.27 1013.14
1010.33 1010.87 1011.47 1012.09 1012.68 1013.24 1013.75 1014.21 1014.62 1014.98 1015.31 1015.60 1015.86 1016.08 1016.25 1016.37 1016.44 1016.46 1016.43 1016.36 1016.27 1016.16 1016.04 1015.93 1015.83 1015.73 1015.65 1015.56 1015.48 1015.38 1015.27 1015.14 1014.99 1014.81 1014.60 1014.36 1014.10 1013.83 1013.55 1013.28 1013.02 1012.80 1012.61
1010.79 1011.32 1011.88 1012.45 1012.99 1013.50 1013.94 1014.34 1014.70 1015.03 1015.32 1015.60 1015.86 1016.08 1016.27 1016.40 1016.48 1016.50 1016.45 1016.36 1016.23 1016.09 1015.94 1015.79 1015.67 1015.57 1015.49 1015.43 1015.37 1015.31 1015.24 1015.14 1015.01 1014.83 1014.61 1014.35 1014.05 1013.72 1013.39 1013.05 1012.74 1012.45 1012.20
1011.45 1011.96 1012.48 1013.00 1013.48 1013.91 1014.29 1014.62 1014.92 1015.19 1015.46 1015.72 1015.98 1016.21 1016.41 1016.56 1016.66 1016.68 1016.63 1016.52 1016.37 1016.19 1016.01 1015.83 1015.68 1015.57 1015.48 1015.42 1015.38 1015.34 1015.29 1015.20 1015.07 1014.89 1014.66 1014.38 1014.05 1013.69 1013.31 1012.93 1012.57 1012.22 1011.91
Thickness
5743 5742 5741 5740 5739 5738 5737 5735 5734 5733 5731 5730 5728 5727 5725 5724 5722 5721 5720 5718 5717 5716 5715 5714 5712 5711 5710 5709 5708 5706 5705 5704 5703 5702 5701 5700 5700 5699 5698 5697 5697 5696 5695
5742 5741 5740 5739 5738 5736 5735 5734 5733 5732 5731 5729 5727 5726 5725 5724 5722 5721 5719 5718 5717 5716 5715 5713 5712 5711 5710 5708 5707 5706 5705 5704 5703 5702 5701 5700 5699 5698 5698 5697 5696 5695 5694
5740 5739 5738 5738 5737 5735 5734 5733 5732 5731 5730 5729 5727 5726 5724 5723 5722 5720 5719 5718 5717 5716 5715 5713 5712 5711 5710 5709 5708 5707 5705 5704 5703 5702 5701 5700 5699 5698 5698 5697 5696 5695 5694
5739 5738 5737 5737 5736 5735 5733 5732 5731 5729 5728 5727 5726 5725 5724 5723 5722 5720 5719 5718 5717 5716 5715 5714 5712 5711 5710 5709 5708 5707 5706 5705 5704 5703 5702 5701 5700 5699 5698 5697 5696 5695 5694
5738 5737 5736 5735 5735 5734 5732 5732 5730 5729 5726 5725 5725 5724 5723 5722 5721 5721 5720 5719 5718 5717 5715 5714 5713 5712 5711 5710 5709 5708 5707 5706 5705 5704 5703 5702 5701 5700 5699 5698 5696 5695 5694
5737 5736 5735 5735 5734 5732 5731 5731 5729 5727 5726 5724 5724 5723 5722 5722 5721 5721 5720 5719 5718 5717 5716 5715 5714 5713 5712 5711 5711 5710 5709 5708 5706 5705 5704 5703 5702 5701 5700 5699 5697 5696 5694
5736 5735 5735 5734 5733 5732 5731 5730 5728 5726 5723 5723 5720 5718 5719 5721 5721 5721 5720 5720 5719 5718 5717 5716 5715 5714 5714 5713 5712 5711 5710 5709 5708 5707 5706 5705 5704 5702 5701 5699 5698 5697 5696
5735 5735 5734 5733 5732 5731 5729 5729 5728 5725 5723 5722 5719 5714 5712 5714 5719 5722 5721 5721 5720 5719 5718 5717 5716 5716 5715 5714 5714 5713 5712 5711 5710 5709 5708 5706 5705 5704 5702 5701 5699 5698 5697
5735 5735 5734 5733 5732 5730 5729 5729 5728 5726 5722 5721 5721 5717 5711 5709 5713 5719 5721 5722 5721 5721 5720 5719 5718 5718 5717 5716 5715 5715 5714 5713 5711 5710 5709 5708 5707 5705 5704 5702 5701 5700 5699
5735 5734 5734 5733 5731 5730 5729 5729 5728 5728 5725 5720 5720 5720 5720 5718 5713 5712 5718 5721 5722 5722 5722 5721 5721 5720 5719 5718 5718 5717 5716 5715 5713 5712 5710 5709 5708 5707 5705 5704 5702 5701 5700
5734 5734 5733 5732 5731 5730 5729 5729 5728 5727 5726 5723 5721 5720 5718 5717 5717 5713 5712 5716 5719 5722 5723 5723 5722 5722 5721 5720 5719 5719 5718 5716 5715 5713 5712 5710 5709 5707 5706 5704 5703 5702 5700
5732 5733 5733 5732 5731 5730 5730 5729 5728 5727 5726 5725 5723 5722 5721 5718 5716 5714 5712 5713 5715 5720 5723 5723 5723 5723 5722 5721 5721 5720 5719 5717 5716 5714 5713 5711 5709 5708 5706 5705 5703 5702 5700
5731 5732 5732 5731 5730 5730 5729 5728 5727 5726 5726 5725 5724 5723 5723 5723 5721 5718 5715 5714 5714 5717 5720 5723 5724 5723 5723 5722 5721 5721 5719 5718 5716 5715 5713 5712 5710 5708 5706 5705 5703 5702 5700
5732 5732 5731 5731 5730 5729 5728 5727 5726 5726 5725 5724 5724 5723 5723 5723 5722 5720 5718 5714 5711 5712 5715 5719 5722 5723 5722 5722 5721 5720 5719 5718 5716 5715 5713 5711 5710 5708 5706 5704 5703 5701 5699
5732 5732 5731 5730 5729 5728 5727 5726 5725 5725 5724 5723 5723 5722 5722 5722 5721 5720 5719 5717 5712 5707 5709 5715 5718 5721 5721 5720 5719 5718 5717 5717 5715 5713 5712 5710 5708 5707 5705 5703 5702 5700 5698
5731 5731 5730 5729 5728 5727 5726 5725 5724 5723 5722 5722 5721 5720 5720 5720 5719 5718 5717 5716 5715 5711 5708 5713 5714 5717 5718 5718 5717 5716 5715 5714 5712 5711 5709 5708 5706 5704 5703 5701 5699 5697 5696
5729 5729 5729 5728 5726 5725 5725 5723 5723 5721 5720 5720 5719 5718 5718 5717 5716 5715 5714 5713 5711 5709 5707 5710 5710 5712 5712 5713 5713 5712 5711 5710 5709 5708 5706 5704 5702 5701 5699 5697 5695 5694 5692
5728 5728 5727 5726 5725 5724 5723 5722 5720 5720 5719 5717 5716 5715 5715 5714 5713 5712 5711 5709 5708 5707 5705 5704 5705 5706 5707 5708 5708 5707 5706 5706 5704 5703 5702 5700 5698 5696 5695 5693 5691 5689 5688
5726 5725 5724 5722 5722 5722 5721 5720 5719 5718 5717 5715 5714 5712 5711 5710 5708 5707 5706 5705 5705 5704 5702 5700 5700 5700 5701 5701 5701 5700 5700 5699 5699 5698 5696 5695 5693 5691 5689 5687 5685 5684 5682
5724 5722 5721 5720 5720 5719 5718 5717 5716 5714 5713 5711 5710 5709 5708 5707 5705 5704 5703 5701 5700 5699 5697 5695 5694 5694 5694 5694 5693 5692 5692 5692 5691 5691 5689 5688 5686 5684 5682 5680 5679 5677 5675
5720 5719 5717 5717 5716 5716 5715 5714 5713 5710 5708 5707 5705 5704 5704 5702 5701 5700 5698 5696 5695 5693 5691 5689 5688 5687 5686 5685 5685 5685 5683 5683 5682 5682 5680 5679 5678 5676 5674 5672 5671 5669 5668
5715 5714 5713 5712 5711 5711 5711 5710 5708 5706 5704 5702 5700 5699 5698 5696 5695 5694 5693 5691 5690 5687 5685 5683 5681 5680 5679 5678 5677 5675 5674 5672 5672 5672 5670 5670 5668 5666 5665 5663 5662 5660 5659
5710 5709 5708 5707 5706 5705 5705 5705 5703 5701 5698 5696 5694 5692 5691 5690 5688 5687 5686 5684 5682 5681 5680 5677 5675 5673 5672 5670 5668 5666 5664 5663 5663 5662 5659 5660 5658 5656 5655 5654 5652 5650 5649
5704 5702 5701 5700 5699 5698 5698 5698 5696 5694 5692 5690 5688 5686 5684 5682 5681 5680 5678 5676 5674 5673 5671 5669 5668 5666 5664 5662 5659 5657 5655 5653 5652 5651 5648 5647 5648 5646 5646 5643 5641 5639 5637
5697 5695 5694 5692 5691 5689 5689 5689 5688 5686 5684 5682 5680 5677 5676 5675 5673 5671 5669 5667 5665 5663 5661 5659 5657 5655 5653 5651 5648 5645 5643 5641 5640 5639 5636 5634 5635 5633 5633 5632 5630 5627 5625
5691 5688 5685 5683 5682 5680 5680 5680 5679 5678 5675 5672 5670 5668 5667 5665 5664 5661 5659 5657 5654 5652 5649 5648 5646 5643 5640 5638 5636 5632 5630 5627 5626 5625 5624 5619 5619 5617 5618 5619 5616 5613 5611